period_start,C,m1,H,J0,J1,J2,J3,J4,J5,JA,JB,JC,JD,JJ,JK,JN,#
2017-03-05 00:00:28,0.20,2.25,0.00,22.26,25.59,29.42,14.86,50.38,1033.59,2035.00,2717.32,2520.92,2864.68,599.84,607.35,13.18,0000 0000 0000 0000 000000
2017-03-05 00:05:29,0.19,2.26,0.00,22.27,25.60,29.42,14.73,50.38,1033.39,2035.00,2714.30,2518.61,2861.99,599.79,607.20,13.23,0000 0000 0000 0000 000000
2017-03-05 00:10:30,0.20,2.27,0.00,22.29,25.61,29.43,14.85,50.60,1033.45,2035.00,2711.32,2516.35,2859.35,600.25,607.60,13.28,0000 0000 0000 0000 000000
2017-03-05 00:15:32,0.19,2.28,0.00,22.30,25.62,29.43,14.90,50.80,1033.52,2035.00,2708.30,2514.10,2856.72,600.30,607.72,13.33,0000 0000 0000 0000 000000
2017-03-05 00:20:33,0.19,2.29,0.00,22.28,25.62,29.48,14.85,50.67,1033.28,2035.00,2705.43,2511.85,2854.20,600.01,607.30,13.38,0000 0000 0000 0000 000000
2017-03-05 00:25:34,0.19,2.30,0.00,22.27,25.64,29.49,14.81,50.48,1033.25,2035.00,2702.51,2509.50,2851.59,599.90,607.18,13.43,0000 0000 0000 0000 000000
2017-03-05 00:30:35,0.20,2.31,0.00,22.29,25.65,29.48,14.81,50.24,1033.26,2035.00,2699.53,2507.23,2849.01,600.00,607.28,13.48,0000 0000 0000 0000 000000
2017-03-05 00:35:37,0.17,2.32,0.00,22.27,25.65,29.44,14.78,50.20,1033.24,2035.00,2696.75,2505.17,2846.58,599.64,606.91,13.53,0000 0000 0000 0000 000000
2017-03-05 00:40:38,0.18,2.33,0.00,22.30,25.67,29.48,14.96,50.27,1033.33,2034.99,2693.97,2503.12,2844.23,600.31,607.53,13.58,0000 0000 0000 0000 000000
2017-03-05 00:45:39,0.18,2.34,0.00,22.32,25.67,29.47,14.75,50.26,1033.67,2034.98,2691.23,2501.07,2841.90,600.11,607.49,13.63,0000 0000 0000 0000 000000
2017-03-05 00:50:41,0.18,2.35,0.00,22.34,25.67,29.46,14.79,50.25,1033.73,2034.98,2688.42,2499.02,2839.56,599.94,607.36,13.68,0000 0000 0000 0000 000000
2017-03-05 00:55:42,0.18,2.36,0.00,22.37,25.70,29.52,14.79,49.97,1034.03,2034.99,2685.68,2497.06,2837.21,599.87,607.40,13.73,0000 0000 0000 0000 000000
2017-03-05 01:00:43,0.18,2.36,0.00,22.39,25.70,29.51,14.75,49.96,1034.18,2034.98,2682.85,2494.93,2834.71,599.73,607.32,13.78,0000 0000 0000 0000 000000
2017-03-05 01:05:45,0.18,2.37,0.00,22.43,25.72,29.54,14.83,49.99,1034.19,2034.97,2680.25,2492.96,2832.38,599.83,607.38,13.83,0000 0000 0000 0000 000000
2017-03-05 01:10:46,0.18,2.38,0.00,22.46,25.73,29.54,14.84,50.01,1034.18,2034.95,2677.50,2490.96,2829.95,600.07,607.61,13.88,0000 0000 0000 0000 000000
2017-03-05 01:15:47,0.19,2.39,0.00,22.48,25.75,29.54,14.77,49.94,1034.18,2034.86,2674.43,2488.68,2827.24,600.01,607.40,13.93,0000 0000 0000 0000 000000
2017-03-05 01:20:49,0.17,2.40,0.00,22.51,25.76,29.55,14.81,50.02,1034.19,2034.77,2671.61,2486.61,2824.89,600.00,607.31,13.98,0000 0000 0000 0000 000000
2017-03-05 01:25:50,0.17,2.41,0.00,22.56,25.77,29.62,14.79,50.07,1034.20,2034.64,2668.95,2484.58,2822.55,599.84,607.09,14.03,0000 0000 0000 0000 000000
2017-03-05 01:30:51,0.15,2.42,0.00,22.58,25.80,29.60,14.85,50.17,1033.97,2034.37,2666.25,2482.53,2820.20,600.19,607.22,14.08,0000 0000 0000 0000 000000
2017-03-05 01:35:53,0.18,2.43,0.00,22.60,25.81,29.64,14.86,50.37,1033.71,2034.20,2663.44,2480.38,2817.72,600.27,607.14,14.13,0000 0000 0000 0000 000000
2017-03-05 01:40:54,0.18,2.44,0.00,22.62,25.82,29.67,14.76,50.32,1033.42,2034.13,2660.59,2478.27,2815.34,599.99,606.67,14.19,0000 0000 0000 0000 000000
2017-03-05 01:45:55,0.19,2.45,0.00,22.65,25.85,29.64,14.83,50.62,1033.23,2034.08,2657.69,2476.05,2812.79,600.04,606.48,14.24,0000 0000 0000 0000 000000
2017-03-05 01:50:56,0.20,2.46,0.00,22.65,25.86,29.68,14.75,50.57,1033.22,2034.05,2654.57,2473.62,2810.08,599.87,606.35,14.29,0000 0000 0000 0000 000000
2017-03-05 01:55:58,0.21,2.47,0.00,22.71,25.87,29.73,14.70,50.53,1033.22,2034.01,2651.59,2471.29,2807.42,599.72,606.25,14.34,0000 0000 0000 0000 000000
2017-03-05 02:00:59,0.19,2.48,0.00,22.73,25.90,29.74,14.83,50.48,1033.27,2034.00,2648.66,2469.06,2804.78,600.00,606.47,14.39,0000 0000 0000 0000 000000
2017-03-05 02:06:01,0.19,2.49,0.00,22.73,25.91,29.74,14.84,50.46,1033.66,2034.00,2645.85,2466.90,2802.27,600.10,606.66,14.44,0000 0000 0000 0000 000000
2017-03-05 02:11:02,0.18,2.50,0.00,22.74,25.93,29.77,14.75,50.40,1033.72,2034.00,2643.16,2464.83,2799.86,600.00,606.64,14.49,0000 0000 0000 0000 000000
2017-03-05 02:16:03,0.17,2.51,0.00,22.77,25.95,29.80,14.69,50.26,1033.85,2034.00,2640.58,2462.90,2797.58,599.94,606.60,14.54,0000 0000 0000 0000 000000
2017-03-05 02:21:05,0.25,2.52,0.00,22.78,25.97,29.80,14.77,50.33,1033.86,2033.98,2637.45,2460.35,2794.60,599.98,606.56,14.59,0000 0000 0000 0000 000000
2017-03-05 02:26:06,0.19,2.53,0.00,22.79,25.99,29.83,14.82,50.48,1033.84,2033.98,2634.44,2457.93,2791.79,600.18,606.75,14.64,0000 0000 0000 0000 000000
2017-03-05 02:31:07,0.17,2.54,0.00,22.83,26.01,29.80,14.76,50.30,1033.82,2033.95,2631.87,2455.90,2789.46,599.86,606.36,14.69,0000 0000 0000 0000 000000
2017-03-05 02:36:08,0.15,2.55,0.00,22.86,26.03,29.87,14.71,50.39,1033.92,2033.81,2629.28,2453.91,2787.17,599.98,606.44,14.74,0000 0000 0000 0000 000000
2017-03-05 02:41:09,0.16,2.55,0.00,22.89,26.05,29.89,14.83,50.30,1033.99,2033.47,2626.69,2451.87,2784.91,599.95,606.40,14.79,0000 0000 0000 0000 000000
2017-03-05 02:46:10,0.14,2.56,0.00,22.92,26.07,29.87,14.76,50.36,1034.16,2033.26,2624.08,2449.97,2782.73,599.95,606.51,14.84,0000 0000 0000 0000 000000
2017-03-05 02:51:11,0.14,2.57,0.00,22.93,26.10,29.86,14.81,50.46,1034.16,2033.09,2621.59,2448.06,2780.43,600.11,606.54,14.89,0000 0000 0000 0000 000000
2017-03-05 02:56:13,0.16,2.58,0.00,22.96,26.11,29.94,14.87,50.70,1034.15,2033.02,2619.14,2446.20,2778.32,599.96,606.36,14.94,0000 0000 0000 0000 000000
2017-03-05 03:01:14,0.17,2.59,0.00,23.01,26.14,29.94,14.78,50.55,1034.14,2033.02,2616.62,2444.35,2776.16,600.03,606.35,14.99,0000 0000 0000 0000 000000
2017-03-05 03:06:15,0.18,2.59,0.00,23.04,26.16,29.97,14.82,50.60,1034.06,2033.00,2614.11,2442.48,2773.93,599.87,606.01,15.04,0000 0000 0000 0000 000000
2017-03-05 03:11:17,0.16,2.60,0.00,23.06,26.19,30.00,14.78,50.56,1034.01,2033.00,2611.55,2440.64,2771.78,599.93,605.95,15.09,0000 0000 0000 0000 000000
2017-03-05 03:16:18,0.18,2.61,0.00,23.21,26.21,30.01,14.80,50.29,1034.19,2032.99,2608.86,2438.55,2769.40,600.08,605.97,15.14,0000 0000 0000 0000 000000
2017-03-05 03:21:19,0.17,2.62,0.00,23.33,26.25,30.02,14.76,50.27,1034.19,2032.99,2606.39,2436.67,2767.31,600.23,605.99,15.19,0000 0000 0000 0000 000000
2017-03-05 03:26:20,0.18,2.63,0.00,23.41,26.28,30.05,14.75,50.31,1034.20,2032.92,2603.71,2434.53,2764.81,599.69,605.28,15.24,0000 0000 0000 0000 000000
2017-03-05 03:31:22,0.13,2.64,0.00,23.40,26.32,30.06,14.76,50.27,1034.21,2032.44,2600.98,2432.49,2762.40,600.28,605.79,15.29,0000 0000 0000 0000 000000
2017-03-05 03:36:23,0.16,2.65,0.00,23.28,26.35,30.12,14.82,50.11,1034.22,2032.17,2598.33,2430.56,2760.09,600.11,605.89,15.34,0000 0000 0000 0000 000000
2017-03-05 03:41:24,0.16,2.65,0.00,23.29,26.38,30.15,14.75,50.09,1034.20,2032.03,2595.74,2428.71,2757.93,600.24,605.92,15.39,0000 0000 0000 0000 000000
2017-03-05 03:46:26,0.18,2.66,0.00,23.44,26.40,30.17,14.74,50.25,1034.20,2032.00,2593.16,2426.82,2755.71,600.06,605.54,15.44,0000 0000 0000 0000 000000
2017-03-05 03:51:27,0.19,2.67,0.00,23.55,26.42,30.15,14.70,50.47,1034.21,2032.00,2590.41,2424.75,2753.33,599.94,605.19,15.49,0000 0000 0000 0000 000000
2017-03-05 03:56:28,0.17,2.68,0.00,23.62,26.45,30.16,14.64,50.39,1034.29,2032.00,2587.81,2422.84,2751.21,599.61,604.74,15.54,0000 0000 0000 0000 000000
2017-03-05 04:01:30,0.17,2.69,0.00,23.51,26.47,30.17,14.70,50.34,1034.48,2031.99,2585.34,2420.99,2749.16,599.87,605.32,15.59,0000 0000 0000 0000 000000
2017-03-05 04:06:32,0.19,2.70,0.00,23.53,26.50,30.18,14.83,50.45,1034.27,2031.98,2582.63,2418.92,2746.85,600.06,605.39,15.64,0000 0000 0000 0000 000000
2017-03-05 04:11:33,0.15,2.71,0.00,23.65,26.51,30.17,14.64,50.34,1034.21,2031.96,2580.21,2417.15,2744.79,599.72,604.77,15.69,0000 0000 0000 0000 000000
2017-03-05 04:16:34,0.16,2.72,0.00,23.75,26.53,30.20,14.64,50.33,1034.21,2031.89,2577.73,2415.37,2742.67,599.78,604.60,15.74,0000 0000 0000 0000 000000
2017-03-05 04:21:36,0.14,2.72,0.00,23.79,26.56,30.21,14.78,50.38,1034.20,2031.66,2575.19,2413.40,2740.43,600.10,604.84,15.79,0000 0000 0000 0000 000000
2017-03-05 04:26:37,0.13,2.73,0.00,23.78,26.57,30.22,14.64,50.41,1034.20,2031.33,2572.67,2411.59,2738.38,600.21,604.86,15.84,0000 0000 0000 0000 000000
2017-03-05 04:31:38,0.18,2.74,0.00,23.65,26.58,30.21,14.85,50.34,1034.20,2031.06,2569.92,2409.58,2736.07,599.96,604.97,15.89,0000 0000 0000 0000 000000
2017-03-05 04:36:39,0.17,2.75,0.00,23.61,26.60,30.16,14.70,50.22,1034.20,2031.04,2567.32,2407.70,2733.86,599.97,605.07,15.94,0000 0000 0000 0000 000000
2017-03-05 04:41:40,0.17,2.76,0.00,23.76,26.60,30.19,14.67,50.34,1034.20,2031.04,2564.78,2405.87,2731.79,599.88,604.66,15.99,0000 0000 0000 0000 000000
2017-03-05 04:46:41,0.20,2.77,0.00,23.74,26.60,30.19,14.75,50.35,1034.19,2031.01,2562.15,2403.76,2729.32,600.09,604.90,16.04,0000 0000 0000 0000 000000
2017-03-05 04:51:42,0.20,2.78,0.00,23.81,26.62,30.21,14.72,50.23,1034.18,2031.00,2559.27,2401.24,2726.49,600.33,605.01,16.09,0000 0000 0000 0000 000000
2017-03-05 04:56:44,0.18,2.79,0.00,23.85,26.62,30.21,14.75,50.25,1033.85,2031.00,2556.76,2399.39,2724.33,600.00,604.46,16.14,0000 0000 0000 0000 000000
2017-03-05 05:01:45,0.18,2.80,0.00,23.85,26.63,30.22,14.66,50.38,1033.71,2031.00,2554.07,2397.49,2722.13,599.76,604.07,16.19,0000 0000 0000 0000 000000
2017-03-05 05:06:47,0.18,2.81,0.00,23.91,26.65,30.24,14.71,50.41,1033.69,2030.99,2551.45,2395.58,2719.98,600.08,604.31,16.24,0000 0000 0000 0000 000000
2017-03-05 05:11:48,0.20,2.81,0.00,23.92,26.65,30.25,14.60,50.41,1033.44,2030.98,2548.69,2393.53,2717.58,599.97,603.92,16.29,0000 0000 0000 0000 000000
2017-03-05 05:16:49,0.16,2.82,0.00,23.83,26.65,30.22,14.81,50.42,1033.28,2030.98,2546.11,2391.85,2715.59,600.07,604.19,16.34,0000 0000 0000 0000 000000
2017-03-05 05:21:51,0.18,2.83,0.00,23.79,26.65,30.18,14.70,50.38,1033.26,2030.98,2543.44,2390.08,2713.43,599.95,604.13,16.39,0000 0000 0000 0000 000000
2017-03-05 05:26:52,0.19,2.84,0.00,23.86,26.65,30.16,14.66,50.34,1033.31,2030.98,2540.70,2388.04,2711.13,599.81,603.89,16.44,0000 0000 0000 0000 000000
2017-03-05 05:31:54,0.18,2.85,0.00,23.89,26.65,30.19,14.69,50.31,1033.27,2030.98,2538.16,2386.16,2708.93,600.05,603.97,16.49,0000 0000 0000 0000 000000
2017-03-05 05:36:55,0.18,2.86,0.00,23.89,26.66,30.23,14.67,50.33,1033.24,2030.98,2535.48,2384.21,2706.67,599.92,603.96,16.55,0000 0000 0000 0000 000000
2017-03-05 05:41:56,0.19,2.87,0.00,23.88,26.66,30.20,14.75,50.52,1033.26,2030.97,2532.75,2382.18,2704.31,600.03,603.99,16.60,0000 0000 0000 0000 000000
2017-03-05 05:46:58,0.19,2.88,0.00,23.91,26.66,30.16,14.76,50.52,1033.58,2030.98,2530.13,2380.22,2702.03,600.16,604.21,16.65,0000 0000 0000 0000 000000
2017-03-05 05:51:59,0.18,2.89,0.00,23.87,26.66,30.20,14.68,50.48,1033.71,2030.97,2527.54,2378.33,2699.82,599.93,604.18,16.70,0000 0000 0000 0000 000000
2017-03-05 05:57:00,0.18,2.90,0.00,23.90,26.67,30.23,14.72,50.38,1033.72,2030.95,2524.98,2376.55,2697.71,600.36,604.67,16.75,0000 0000 0000 0000 000000
2017-03-05 06:02:02,0.14,2.91,0.00,23.96,26.67,30.23,14.73,50.50,1033.84,2030.97,2522.60,2374.97,2695.77,600.00,604.17,16.80,0000 0000 0000 0000 000000
2017-03-05 06:07:03,0.16,2.92,0.00,24.00,26.67,30.20,14.72,50.46,1033.79,2030.96,2520.39,2373.49,2693.98,600.15,604.28,16.85,0000 0000 0000 0000 000000
2017-03-05 06:12:04,0.18,2.92,0.00,23.95,26.67,30.22,14.74,50.53,1033.73,2030.92,2517.99,2371.73,2691.92,599.90,603.92,16.90,0000 0000 0000 0000 000000
2017-03-05 06:17:05,0.20,2.93,0.00,23.97,26.67,30.23,14.70,50.46,1033.71,2030.86,2515.28,2369.65,2689.51,600.04,604.26,16.95,0000 0000 0000 0000 000000
2017-03-05 06:22:06,0.19,2.94,0.00,23.98,26.67,30.23,14.75,50.52,1033.72,2030.92,2512.61,2367.68,2687.15,599.96,603.97,17.00,0000 0000 0000 0000 000000
2017-03-05 06:27:07,0.17,2.95,0.00,23.98,26.67,30.23,14.67,50.56,1033.71,2030.85,2510.09,2365.96,2685.12,600.07,604.13,17.05,0000 0000 0000 0000 000000
2017-03-05 06:32:09,0.16,2.96,0.00,23.99,26.67,30.22,14.72,50.75,1033.71,2030.88,2507.69,2364.33,2683.21,599.71,603.70,17.10,0000 0000 0000 0000 000000
2017-03-05 06:37:10,0.18,2.97,0.00,24.02,26.67,30.19,14.63,50.82,1033.70,2030.85,2505.17,2362.46,2681.08,599.79,603.75,17.15,0000 0000 0000 0000 000000
2017-03-05 06:42:11,0.18,2.98,0.00,24.00,26.67,30.12,14.65,50.91,1033.62,2030.88,2502.68,2360.73,2679.05,600.04,603.92,17.20,0000 0000 0000 0000 000000
2017-03-05 06:47:12,0.17,2.99,0.00,23.97,26.67,30.14,14.74,50.79,1033.58,2030.93,2500.22,2359.00,2677.00,600.46,604.46,17.25,0000 0000 0000 0000 000000
2017-03-05 06:52:13,0.16,3.00,0.00,24.00,26.67,30.17,14.71,50.75,1033.62,2030.90,2497.80,2357.26,2675.01,600.12,604.14,17.30,0000 0000 0000 0000 000000
2017-03-05 06:57:15,0.17,3.01,0.00,24.03,26.67,30.17,14.67,50.71,1033.70,2030.91,2495.45,2355.43,2672.90,599.96,603.91,17.35,0000 0000 0000 0000 000000
2017-03-05 07:02:16,0.18,3.01,0.00,24.02,26.67,30.16,14.75,50.53,1033.71,2030.89,2493.17,2353.72,2670.92,600.32,604.37,17.40,0000 0000 0000 0000 000000
2017-03-05 07:07:17,0.18,3.02,0.00,23.98,26.67,30.18,14.68,50.43,1033.71,2030.86,2490.55,2351.68,2668.62,600.06,604.23,17.45,0000 0000 0000 0000 000000
2017-03-05 07:12:18,0.17,3.03,0.00,24.01,26.67,30.18,14.74,50.48,1033.71,2030.90,2488.21,2349.96,2666.66,600.09,604.09,17.50,0000 0000 0000 0000 000000
2017-03-05 07:17:19,0.17,3.04,0.00,24.03,26.67,30.18,14.76,50.50,1033.71,2030.91,2485.76,2348.34,2664.70,600.19,604.19,17.55,0000 0000 0000 0000 000000
2017-03-05 07:22:21,0.19,3.05,0.00,24.03,26.66,30.16,14.70,50.55,1033.71,2030.92,2483.15,2346.29,2662.42,600.28,604.38,17.60,0000 0000 0000 0000 000000
2017-03-05 07:27:22,0.18,3.06,0.00,24.05,26.65,30.12,14.70,50.49,1033.71,2030.95,2480.70,2344.58,2660.44,600.22,604.14,17.65,0000 0000 0000 0000 000000
2017-03-05 07:32:24,0.17,3.07,0.00,24.02,26.65,30.12,14.73,50.55,1033.71,2030.96,2478.33,2342.93,2658.53,600.48,604.47,17.70,0000 0000 0000 0000 000000
2017-03-05 07:37:25,0.18,3.08,0.00,24.00,26.65,30.15,14.70,50.77,1033.71,2030.94,2475.87,2341.13,2656.44,599.80,603.79,17.75,0000 0000 0000 0000 000000
2017-03-05 07:42:26,0.21,3.09,0.00,24.03,26.65,30.15,14.70,50.65,1033.71,2030.96,2473.25,2339.20,2654.22,600.18,604.29,17.80,0000 0000 0000 0000 000000
2017-03-05 07:47:27,0.17,3.10,0.00,24.07,26.65,30.12,14.65,50.55,1033.66,2030.94,2470.62,2337.24,2651.91,599.54,603.38,17.85,0000 0000 0000 0000 000000
2017-03-05 07:52:29,0.18,3.11,0.00,24.02,26.65,30.14,14.69,50.73,1033.38,2030.93,2468.25,2335.53,2649.96,599.94,603.77,17.90,0000 0000 0000 0000 000000
2017-03-05 07:57:30,0.17,3.12,0.00,24.05,26.65,30.16,14.69,50.83,1033.24,2030.85,2465.74,2333.74,2647.92,599.86,603.50,17.95,0000 0000 0000 0000 000000
2017-03-05 08:02:31,0.16,3.12,0.00,24.08,26.65,30.17,14.72,50.73,1033.24,2030.90,2463.34,2332.11,2645.95,599.67,603.29,18.00,0000 0000 0000 0000 000000
2017-03-05 08:07:33,0.18,3.13,0.00,24.05,26.65,30.17,14.70,51.00,1033.23,2030.93,2460.99,2330.34,2643.96,599.99,603.63,18.05,0000 0000 0000 0000 000000
2017-03-05 08:12:34,0.17,3.14,0.00,24.07,26.66,30.16,14.67,50.89,1033.23,2030.91,2458.54,2328.57,2641.86,599.83,603.43,18.10,0000 0000 0000 0000 000000
2017-03-05 08:17:35,0.16,3.15,0.00,24.11,26.66,30.15,14.67,50.91,1033.24,2030.90,2456.19,2326.86,2639.91,599.81,603.28,18.15,0000 0000 0000 0000 000000
2017-03-05 08:22:36,0.17,3.16,0.00,24.12,26.65,30.13,14.73,50.92,1033.23,2030.93,2453.83,2325.29,2637.95,599.81,603.27,18.20,0000 0000 0000 0000 000000
2017-03-05 08:27:37,0.16,3.17,0.00,24.09,26.65,30.14,14.66,51.02,1033.23,2030.95,2451.59,2323.63,2636.13,599.92,603.48,18.25,0000 0000 0000 0000 000000
2017-03-05 08:32:38,0.16,3.18,0.00,24.10,26.65,30.11,14.62,50.88,1033.23,2030.98,2449.28,2322.01,2634.26,600.08,603.62,18.30,0000 0000 0000 0000 000000
2017-03-05 08:37:40,0.19,3.19,0.00,24.09,26.65,30.11,14.63,51.00,1033.22,2030.98,2446.85,2320.12,2632.05,599.64,603.04,18.35,0000 0000 0000 0000 000000
2017-03-05 08:42:41,0.15,3.19,0.00,24.13,26.64,30.10,14.69,50.83,1033.21,2030.96,2444.62,2318.52,2630.17,600.03,603.57,18.40,0000 0000 0000 0000 000000
2017-03-05 08:47:42,0.16,3.20,0.00,24.11,26.62,30.08,14.77,50.91,1033.04,2030.97,2442.47,2316.94,2628.46,600.35,603.75,18.45,0000 0000 0000 0000 000000
2017-03-05 08:52:44,0.17,3.21,0.00,24.12,26.62,30.08,14.71,50.85,1032.86,2030.97,2440.25,2315.37,2626.55,600.36,603.64,18.50,0000 0000 0000 0000 000000
2017-03-05 08:57:45,0.17,3.22,0.00,24.15,26.62,30.07,14.70,50.82,1032.82,2030.95,2438.02,2313.70,2624.69,599.90,603.06,18.55,0000 0000 0000 0000 000000
2017-03-05 09:02:46,0.15,3.23,0.00,24.18,26.62,30.04,14.65,50.83,1032.82,2030.96,2435.87,2312.17,2623.02,599.33,602.43,18.60,0000 0000 0000 0000 000000
2017-03-05 09:07:47,0.16,3.24,0.00,24.12,26.61,30.05,14.71,50.83,1032.80,2030.96,2433.60,2310.56,2621.28,600.08,603.33,18.65,0000 0000 0000 0000 000000
2017-03-05 09:12:49,0.15,3.25,0.00,24.10,26.60,30.05,14.66,50.84,1032.76,2030.97,2431.46,2308.98,2619.46,599.64,602.88,18.70,0000 0000 0000 0000 000000
2017-03-05 09:17:50,0.16,3.25,0.00,24.09,26.60,30.06,14.74,50.85,1032.76,2030.98,2429.39,2307.52,2617.70,600.26,603.50,18.75,0000 0000 0000 0000 000000
2017-03-05 09:22:52,0.16,3.26,0.00,24.15,26.60,30.05,14.61,50.71,1032.77,2030.99,2427.17,2305.91,2615.89,600.14,603.38,18.80,0000 0000 0000 0000 000000
2017-03-05 09:27:53,0.17,3.27,0.00,24.15,26.60,30.07,14.63,50.77,1032.78,2030.98,2424.80,2304.31,2613.85,599.95,603.07,18.85,0000 0000 0000 0000 000000
2017-03-05 09:32:54,0.17,3.28,0.00,24.14,26.60,30.06,14.72,50.98,1032.74,2030.98,2422.43,2302.63,2611.87,600.66,603.83,18.90,0000 0000 0000 0000 000000
2017-03-05 09:37:56,0.19,3.29,0.00,24.15,26.60,30.06,14.61,50.88,1032.73,2030.99,2420.03,2300.90,2609.85,599.53,602.78,18.95,0000 0000 0000 0000 000000
2017-03-05 09:42:57,0.17,3.30,0.00,24.13,26.60,30.05,14.66,51.03,1032.73,2030.98,2417.58,2299.07,2607.76,599.89,603.07,19.00,0000 0000 0000 0000 000000
2017-03-05 09:47:58,0.16,3.31,0.00,24.10,26.60,30.07,14.69,50.78,1032.74,2030.99,2415.38,2297.56,2606.01,600.36,603.54,19.05,0000 0000 0000 0000 000000
2017-03-05 09:52:59,0.16,3.31,0.00,24.15,26.60,30.05,14.61,50.66,1032.73,2030.99,2413.09,2296.01,2604.18,599.86,602.99,19.10,0000 0000 0000 0000 000000
2017-03-05 09:58:00,0.20,3.32,0.00,24.10,26.60,30.05,14.66,50.73,1032.73,2030.99,2410.59,2294.07,2602.00,600.17,603.42,19.15,0000 0000 0000 0000 000000
2017-03-05 10:03:01,0.16,3.33,0.00,24.09,26.60,30.05,14.67,50.67,1032.73,2030.99,2408.30,2292.41,2600.05,599.91,603.04,19.20,0000 0000 0000 0000 000000
2017-03-05 10:08:02,0.19,3.34,0.00,24.10,26.60,30.06,14.67,50.62,1032.73,2030.99,2405.84,2290.65,2598.07,599.79,603.03,19.25,0000 0000 0000 0000 000000
2017-03-05 10:13:04,0.18,3.35,0.00,24.14,26.60,30.06,14.67,50.70,1032.61,2030.98,2403.33,2288.87,2596.02,599.98,602.97,19.30,0000 0000 0000 0000 000000
2017-03-05 10:18:05,0.19,3.36,0.00,24.16,26.60,30.08,14.57,50.66,1032.31,2030.98,2400.89,2287.02,2593.91,600.16,603.09,19.35,0000 0000 0000 0000 000000
2017-03-05 10:23:07,0.20,3.37,0.00,24.17,26.60,30.06,14.71,50.93,1032.24,2030.98,2398.17,2284.99,2591.60,600.32,603.09,19.41,0000 0000 0000 0000 000000
2017-03-05 10:28:08,0.19,3.38,0.00,24.12,26.61,30.06,14.69,50.76,1032.20,2030.99,2395.62,2283.10,2589.47,600.52,603.42,19.46,0000 0000 0000 0000 000000
2017-03-05 10:33:09,0.19,3.39,0.00,24.12,26.62,30.06,14.65,50.73,1031.90,2030.99,2393.19,2281.39,2587.39,599.92,602.69,19.51,0000 0000 0000 0000 000000
2017-03-05 10:38:11,0.18,3.40,0.00,24.11,26.62,30.06,14.75,50.78,1031.82,2030.98,2390.84,2279.66,2585.37,600.65,603.19,19.56,0000 0000 0000 0000 000000
2017-03-05 10:43:12,0.20,3.41,0.00,24.14,26.62,30.07,14.70,50.97,1031.88,2030.96,2388.39,2277.83,2583.32,599.95,602.66,19.61,0000 0000 0000 0000 000000
2017-03-05 10:48:13,0.26,3.42,0.00,24.14,26.62,30.07,14.58,50.86,1031.93,2030.98,2385.27,2275.46,2580.68,599.74,602.42,19.66,0000 0000 0000 0000 000000
2017-03-05 10:53:14,0.22,3.43,0.00,24.15,26.62,30.07,14.68,50.64,1031.80,2030.99,2382.17,2273.20,2578.04,600.32,602.75,19.71,0000 0000 0000 0000 000000
2017-03-05 10:58:16,0.20,3.44,0.00,24.16,26.62,30.06,14.61,50.63,1031.76,2030.98,2379.51,2271.18,2575.67,599.55,602.15,19.76,0000 0000 0000 0000 000000
2017-03-05 11:03:17,0.19,3.46,0.00,24.17,26.61,30.05,14.72,50.63,1031.75,2030.98,2376.97,2269.25,2573.41,600.37,602.89,19.81,0000 0000 0000 0000 000000
2017-03-05 11:08:18,0.19,3.46,0.00,24.22,26.60,30.06,14.61,50.90,1031.55,2030.99,2374.46,2267.44,2571.30,599.62,601.94,19.86,0000 0000 0000 0000 000000
2017-03-05 11:13:19,0.21,3.47,0.00,24.19,26.60,30.04,14.65,50.96,1031.29,2030.97,2371.74,2265.49,2569.07,599.93,602.15,19.91,0000 0000 0000 0000 000000
2017-03-05 11:18:20,0.22,3.49,0.00,24.21,26.60,30.05,14.62,50.95,1031.27,2030.97,2369.07,2263.44,2566.72,599.53,601.77,19.96,0000 0000 0000 0000 000000
2017-03-05 11:23:22,0.19,3.50,0.00,24.19,26.60,30.06,14.72,51.09,1031.23,2030.98,2366.58,2261.52,2564.42,600.38,602.62,20.01,0000 0000 0000 0000 000000
2017-03-05 11:28:23,0.19,3.51,0.00,24.22,26.60,30.05,14.64,50.99,1031.15,2030.99,2364.27,2259.77,2562.39,599.72,601.81,20.06,0000 0000 0000 0000 000000
2017-03-05 11:33:24,0.20,3.52,0.00,24.20,26.60,30.05,14.65,51.30,1031.10,2030.99,2361.78,2257.97,2560.24,599.78,601.86,20.11,0000 0000 0000 0000 000000
2017-03-05 11:38:26,0.20,3.53,0.00,24.19,26.60,30.06,14.62,51.35,1030.94,2030.98,2359.25,2256.01,2558.20,599.93,601.92,20.16,0000 0000 0000 0000 000000
2017-03-05 11:43:27,0.21,3.54,0.00,24.21,26.59,30.06,14.61,51.36,1030.86,2030.98,2356.40,2253.91,2555.82,599.67,601.52,20.21,0000 0000 0000 0000 000000
2017-03-05 11:48:28,0.17,3.55,0.00,24.14,26.59,30.07,14.69,51.31,1030.81,2030.97,2354.05,2252.19,2553.72,600.38,602.38,20.26,0000 0000 0000 0000 000000
2017-03-05 11:53:30,0.19,3.56,0.00,24.16,26.58,30.07,14.67,51.24,1030.89,2030.98,2351.56,2250.33,2551.67,600.40,602.40,20.31,0000 0000 0000 0000 000000
2017-03-05 11:58:31,0.19,3.57,0.00,24.15,26.59,30.08,14.69,51.22,1031.09,2030.98,2349.19,2248.60,2549.60,600.07,602.34,20.36,0000 0000 0000 0000 000000
2017-03-05 12:03:32,0.17,3.57,0.00,24.19,26.59,30.07,14.70,51.06,1031.20,2030.97,2346.98,2246.96,2547.70,600.11,602.28,20.41,0000 0000 0000 0000 000000
2017-03-05 12:08:33,0.17,3.58,0.00,24.16,26.59,30.09,14.60,51.11,1031.26,2030.96,2344.73,2245.37,2545.87,599.54,601.77,20.46,0000 0000 0000 0000 000000
2017-03-05 12:13:35,0.19,3.59,0.00,24.15,26.60,30.10,14.72,51.14,1031.26,2030.96,2342.39,2243.59,2543.83,600.07,602.20,20.51,0000 0000 0000 0000 000000
2017-03-05 12:18:36,0.18,3.60,0.00,24.17,26.60,30.11,14.63,51.16,1031.30,2030.97,2340.13,2241.96,2541.96,600.09,602.43,20.56,0000 0000 0000 0000 000000
2017-03-05 12:23:37,0.18,3.61,0.00,24.14,26.60,30.12,14.65,51.11,1031.49,2030.94,2337.71,2240.32,2539.95,599.67,601.94,20.61,0000 0000 0000 0000 000000
2017-03-05 12:28:38,0.17,3.62,0.00,24.14,26.60,30.13,14.59,51.19,1031.69,2030.97,2335.40,2238.74,2538.09,599.64,602.19,20.66,0000 0000 0000 0000 000000
2017-03-05 12:33:39,0.17,3.63,0.00,24.15,26.60,30.12,14.62,51.16,1031.60,2030.97,2333.17,2237.23,2536.25,599.60,602.09,20.71,0000 0000 0000 0000 000000
2017-03-05 12:38:40,0.18,3.64,0.00,24.15,26.60,30.09,14.70,51.02,1031.34,2030.99,2330.87,2235.60,2534.34,600.34,602.72,20.76,0000 0000 0000 0000 000000
2017-03-05 12:43:42,0.17,3.65,0.00,24.11,26.60,30.11,14.59,50.98,1031.28,2030.96,2328.55,2233.85,2532.48,600.07,602.41,20.81,0000 0000 0000 0000 000000
2017-03-05 12:48:43,0.18,3.66,0.00,24.13,26.60,30.12,14.73,51.13,1031.27,2030.97,2326.25,2232.27,2530.46,600.19,602.53,20.86,0000 0000 0000 0000 000000
2017-03-05 12:53:44,0.18,3.67,0.00,24.11,26.60,30.12,14.69,51.13,1031.27,2030.96,2324.00,2230.66,2528.60,600.49,602.86,20.91,0000 0000 0000 0000 000000